Weather Roundup
Issued by NWS

Home | Current Version | Previous Version | Text Only | Print | Product List | Glossary On
Versions: 1 2 3 4 5 6 7 8 9 10 11 12 13 14 15 16 17 18 19 20 21 22 23 24 25 26 27 28 29 30 31 32 33 34 35 36 37 38 39 40 41 42 43 44 45 46 47 48 49 50
000
NZUS93 KARX 030410
HRRWXR

CURRENT HOURLY OBSERVATIONS ACROSS
MUCH OF THE UPPER MISSISSIPPI VALLEY
NATIONAL WEATHER SERVICE LA CROSSE WI
1100 PM CDT MON MAY 02 2016


...SOUTHEAST MINNESOTA...


CITY           SKY/WX    TMP DP  RH WIND       PRES   REMARKS
ROCHESTER      MOCLDY    50  42  74 SW7       30.03F
ROCHESTER/MAYO CLOUDY    56  38  52 SW8       30.02F
WINONA         PTCLDY    52  45  76 CALM      30.01F
AUSTIN         PTCLDY    50  41  71 CALM      30.03F
ALBERT LEA     CLEAR     52  45  76 SW3       30.04S
DODGE CENTER   PTCLDY    48  39  71 SW6       30.02F
PRESTON        PTCLDY    49  38  65 SW7       30.03F
OWATONNA       CLEAR     50  37  62 SW6       30.02F
FARIBAULT      CLEAR     54  36  50 SW2       30.02F
$$

...ELSEWHERE IN MINNESOTA...


CITY           SKY/WX    TMP DP  RH WIND       PRES   REMARKS
MINNEAPOLIS    CLEAR     57  32  38 SW5       30.00F
INTNL FALLS    CLOUDY    40  34  79 S3        29.90F
DULUTH         PTCLDY    47  31  53 CALM      29.95F
RED WING       CLEAR     46  39  76 CALM      29.99F
REDWOOD FALLS  MOCLDY    52  38  58 S8        30.01S
MANKATO        CLEAR     55  36  47 SW6       30.02F
WORTHINGTON    CLEAR     49  42  77 SW5       30.04S
FAIRMONT       CLEAR     52  39  62 CALM      30.03S
$$

...SOUTHWEST WISCONSIN...


CITY           SKY/WX    TMP DP  RH WIND       PRES   REMARKS
LA CROSSE      CLOUDY    54  43  66 S6        30.00F
PRAIRIE DU CHI CLEAR     47  41  81 CALM      30.02F
BOSCOBEL       MOCLDY    46  41  82 CALM      30.02F
LONE ROCK      PTCLDY    49  41  74 CALM      30.01F
PLATTEVILLE    PTCLDY    50  37  60 W3        30.02S
FORT MC COY    MOCLDY    46  40  78 CALM      30.02F
MAUSTON-NEW LI CLEAR     48  38  66 W3        29.99F
VIROQUA        MOCLDY    54  35  49 W3        30.02F
WIS DELLS      PTCLDY    49  36  59 S6        30.00F
$$

...ELSEWHERE IN WISCONSIN...


CITY           SKY/WX    TMP DP  RH WIND       PRES   REMARKS
MILWAUKEE      PTCLDY    44  34  67 CALM      30.01F
MADISON        CLEAR     44  36  73 CALM      30.01S
GREEN BAY      CLEAR     48  38  68 CALM      29.99F
EAU CLAIRE     CLEAR     50  35  56 CALM      29.99S
BLACK RVR FLS  MOCLDY    45  38  78 CALM      29.99F
MEDFORD        CLEAR     45  36  69 SW3       29.99S
WAUSAU         CLEAR     50  36  58 CALM      29.97F
WIS RAPIDS     PTCLDY    46  34  62 CALM      30.00F
MARSHFIELD     CLEAR     50  35  56 CALM      29.98F
RICE LAKE      CLEAR     49  38  65 CALM      30.01S
$$

...NORTHEAST IOWA...


CITY           SKY/WX    TMP DP  RH WIND       PRES   REMARKS
WATERLOO       CLEAR     46  40  79 CALM      30.04S
DUBUQUE        CLEAR     48  40  73 CALM      30.03S
DECORAH        MOCLDY    52  39  62 CALM      30.02F
MASON CITY     CLEAR     47  42  83 S5        30.05S
CHARLES CITY   CLEAR     50  41  71 SW5       30.04F
OELWEIN        CLEAR     48  41  76 W8        30.05S
$$

...ELSEWHERE IN IOWA...


CITY           SKY/WX    TMP DP  RH WIND       PRES   REMARKS
DES MOINES     CLEAR     53  42  66 S5        30.05F
IOWA CITY      MOCLDY    46  43  89 CALM      30.05S
FORT DODGE     CLEAR     43  36  75 CALM      30.05S
MARSHALLTOWN   PTCLDY    46  42  86 S3        30.05S
CEDAR RAPIDS   CLOUDY    47  43  86 W8        30.03F
$$

...NORTHERN ILLINOIS...


CITY           SKY/WX    TMP DP  RH WIND       PRES   REMARKS
CHICAGO-OHARE  CLEAR     45  36  70 CALM      30.00F
CHICAGO-MIDWAY PTCLDY    49  33  54 CALM      30.01F
MOLINE         PTCLDY    51  45  79 W3        30.02S
ROCKFORD       CLEAR     46  40  79 CALM      30.04F
PEORIA         CLOUDY    51  45  79 CALM      30.02S
$$

NOTE: "FAIR" INDICATES FEW OR NO CLOUDS BELOW 12,000 FEET WITH NO
SIGNIFICANT WEATHER AND/OR OBSTRUCTIONS TO VISIBILITY. WIND
SPEEDS ARE IN MILES-PER-HOUR.




USA.gov is the U.S. government's official web portal to all federal, state and local government web resources and services.